Uvalde, Texas, United States (78801)
Lat: 29.21N, Lon: 99.79W
Wx Zone: TXZ203
Local Info
Past Weather Observations for Today

NOTE: This archive is for the closest National Weather Service station to Uvalde. Information may differ from the station used for current weather conditions.

Click here for Long-term Archive

Time Weather Temperature Dewpoint Humidity Pressure Winds Precip Visibility
16:55
Clear
81°F / 27°C 30°F / -1°C 16% 30.09 in
(1019 mb)
S 3.5 mph
(S 6 kph)
- 10SM
16:35
Clear
81°F / 27°C 28°F / -2°C 15% 30.09 in
(1019 mb)
SW 8.1 mph
(SW 13 kph)
- 10SM
16:15
Clear
81°F / 27°C 32°F / 0°C 17% 30.09 in
(1019 mb)
SSE 10.4 mph
(SSE 17 kph)
- 10SM
15:55
Clear
81°F / 27°C 32°F / 0°C 17% 30.09 in
(1019 mb)
SW 8.1 mph
(SW 13 kph)
- 10SM
15:35
Clear
81°F / 27°C 28°F / -2°C 15% 30.09 in
(1019 mb)
SSE 10.4 mph
(SSE 17 kph)
- 10SM
15:15
Clear
81°F / 27°C 32°F / 0°C 17% 30.09 in
(1019 mb)
SSE 8.1 mph
(SSE 13 kph)
- 10SM
14:55
Clear
79°F / 26°C 32°F / 0°C 18% 30.09 in
(1019 mb)
SW 6.9 mph
(SW 11 kph)
- 10SM
14:35
Clear
79°F / 26°C 34°F / 1°C 20% 30.09 in
(1019 mb)
S 9.2 mph
(S 15 kph)
- 10SM
14:15
Clear
77°F / 25°C 32°F / 0°C 19% 30.09 in
(1019 mb)
SW 8.1 mph
(SW 13 kph)
- 10SM
13:55
Clear
77°F / 25°C 34°F / 1°C 21% 30.12 in
(1020 mb)
S 8.1 mph
(S 13 kph)
- 10SM
13:35
Clear
77°F / 25°C 36°F / 2°C 22% 30.12 in
(1020 mb)
S 6.9 mph
(S 11 kph)
- 10SM
13:15
Clear
75°F / 24°C 39°F / 4°C 27% 30.12 in
(1020 mb)
SE 3.5 mph
(SE 6 kph)
- 10SM
12:55
Clear
73°F / 23°C 36°F / 2°C 25% 30.15 in
(1021 mb)
Calm - 10SM
12:35
Clear
72°F / 22°C 37°F / 3°C 29% 30.15 in
(1021 mb)
Calm - 10SM
12:15
Clear
70°F / 21°C 37°F / 3°C 31% 30.18 in
(1022 mb)
Calm - 10SM
11:55
Clear
68°F / 20°C 37°F / 3°C 33% 30.18 in
(1022 mb)
Calm - 10SM
11:35
Clear
66°F / 19°C 37°F / 3°C 35% 30.18 in
(1022 mb)
S 4.6 mph
(S 7 kph)
- 10SM
11:15
Clear
64°F / 18°C 37°F / 3°C 37% 30.21 in
(1023 mb)
SSE 3.5 mph
(SSE 6 kph)
- 10SM
10:55
Clear
63°F / 17°C 36°F / 2°C 37% 30.21 in
(1023 mb)
Calm - 10SM
10:35
Clear
63°F / 17°C 36°F / 2°C 37% 30.21 in
(1023 mb)
Calm - 10SM
10:15
Clear
61°F / 16°C 36°F / 2°C 39% 30.21 in
(1023 mb)
Calm - 10SM
09:55
Clear
61°F / 16°C 36°F / 2°C 39% 30.21 in
(1023 mb)
SE 3.5 mph
(SE 6 kph)
- 10SM
09:35
Clear
57°F / 14°C 34°F / 1°C 41% 30.21 in
(1023 mb)
Calm - 10SM
09:15
Clear
55°F / 13°C 34°F / 1°C 44% 30.21 in
(1023 mb)
Calm - 10SM
08:55
Clear
54°F / 12°C 36°F / 2°C 51% 30.21 in
(1023 mb)
Calm - 10SM
08:35
Clear
48°F / 9°C 37°F / 3°C 66% 30.18 in
(1022 mb)
NE 3.5 mph
(NE 6 kph)
- 10SM
08:15
Clear
43°F / 6°C 34°F / 1°C 71% 30.18 in
(1022 mb)
ENE 5.8 mph
(ENE 9 kph)
- 10SM
07:55
Clear
39°F / 4°C 32°F / 0°C 75% 30.18 in
(1022 mb)
E 5.8 mph
(E 9 kph)
- 10SM
07:35
Clear
39°F / 4°C 30°F / -1°C 70% 30.18 in
(1022 mb)
NE 3.5 mph
(NE 6 kph)
- 10SM
07:15
Clear
36°F / 2°C 30°F / -1°C 81% 30.18 in
(1022 mb)
NE 3.5 mph
(NE 6 kph)
- 10SM
06:55
Clear
37°F / 3°C 30°F / -1°C 75% 30.18 in
(1022 mb)
ENE 4.6 mph
(ENE 7 kph)
- 10SM
06:35
Clear
36°F / 2°C 30°F / -1°C 81% 30.18 in
(1022 mb)
Calm - 10SM
06:15
Clear
36°F / 2°C 30°F / -1°C 81% 30.18 in
(1022 mb)
NE 3.5 mph
(NE 6 kph)
- 10SM
05:55
Clear
37°F / 3°C 30°F / -1°C 75% 30.18 in
(1022 mb)
E 3.5 mph
(E 6 kph)
- 10SM
05:35
Clear
37°F / 3°C 30°F / -1°C 75% 30.18 in
(1022 mb)
E 3.5 mph
(E 6 kph)
- 10SM
05:15
Clear
39°F / 4°C 30°F / -1°C 70% 30.15 in
(1021 mb)
ENE 5.8 mph
(ENE 9 kph)
- 10SM
04:55
Clear
39°F / 4°C 30°F / -1°C 70% 30.15 in
(1021 mb)
ENE 4.6 mph
(ENE 7 kph)
- 10SM
04:35
Clear
39°F / 4°C 30°F / -1°C 70% 30.15 in
(1021 mb)
NE 4.6 mph
(NE 7 kph)
- 10SM
04:15
Clear
41°F / 5°C 30°F / -1°C 66% 30.15 in
(1021 mb)
ENE 4.6 mph
(ENE 7 kph)
- 10SM
03:55
Clear
39°F / 4°C 30°F / -1°C 70% 30.15 in
(1021 mb)
ENE 4.6 mph
(ENE 7 kph)
- 10SM
03:35
Clear
41°F / 5°C 30°F / -1°C 66% 30.18 in
(1022 mb)
ENE 4.6 mph
(ENE 7 kph)
- 10SM
03:15
Clear
43°F / 6°C 30°F / -1°C 61% 30.15 in
(1021 mb)
Calm - 10SM
02:55
Clear
46°F / 8°C 30°F / -1°C 53% 30.18 in
(1022 mb)
Calm - 10SM
02:35
Clear
52°F / 11°C 28°F / -2°C 41% 30.18 in
(1022 mb)
Calm - 10SM
02:15
Clear
52°F / 11°C 28°F / -2°C 41% 30.18 in
(1022 mb)
SW 3.5 mph
(SW 6 kph)
- 10SM
01:55
Clear
50°F / 10°C 30°F / -1°C 47% 30.21 in
(1023 mb)
Calm - 10SM
01:35
Clear
48°F / 9°C 28°F / -2°C 46% 30.21 in
(1023 mb)
Calm - 10SM
01:15
Clear
50°F / 10°C 30°F / -1°C 47% 30.21 in
(1023 mb)
S 4.6 mph
(S 7 kph)
- 10SM
00:55
Clear
46°F / 8°C 30°F / -1°C 53% 30.21 in
(1023 mb)
Calm - 10SM
00:35
Clear
48°F / 9°C 32°F / 0°C 54% 30.21 in
(1023 mb)
Calm - 10SM
00:15
Clear
52°F / 11°C 30°F / -1°C 44% 30.21 in
(1023 mb)
Calm - 10SM
Time Weather Temperature Dewpoint Humidity Pressure Winds Precip Visibility


Weather for websites

WeatherForYou.com, LLC is not responsible for any damages or problems caused by this service. Current weather conditions are obtained from the closest station including government and personal stations which may have varying degrees of accuracy. Weather forecasts are derived from the NOAA NDFD. Like all things, this site belongs to Jesus Christ... He just trusts us to maintain it. If you have any questions or comments email webmaster@weatherforyou.com

Copyright © 2016, WeatherForYou.com LLC. All rights reserved.